GW6864 Weather Reports


time (UTC)temp
C
wind
direction
speed
KPH
gust
KPH
rain 1hr
cm
rain 24hr
cm
rain mn
cm
humidity
%
barometer
mb
20260906025957 25 173 0.0 0.0 0.00 0.00 0.00 85 1015.0
20260906025456 25 172 0.0 0.0 0.00 0.00 0.00 85 1014.8
20260906024956 26 172 0.0 0.0 0.00 0.00 0.00 85 1015.0
20260906024456 25 173 0.0 0.0 0.00 0.00 0.00 85 1015.3
20260906023956 25 173 0.0 0.0 0.00 0.00 0.00 86 1015.2
20260906023452 25 173 1.6 1.6 0.00 0.00 0.00 86 1015.0
20260906022947 25 172 0.0 0.0 0.00 0.00 0.00 85 1014.7
20260906022442 25 172 0.0 0.0 0.00 0.00 0.00 85 1014.7
20260906021937 25 172 0.0 0.0 0.00 0.00 0.00 84 1014.7
20260906021432 26 172 0.0 0.0 0.00 0.00 0.00 85 1014.7
20260906020932 26 172 0.0 0.0 0.00 0.00 0.00 85 1014.7
20260906020426 26 172 0.0 0.0 0.00 0.00 0.00 84 1014.7
20260906015921 26 172 0.0 0.0 0.00 0.00 0.00 83 1014.2
20260906015421 26 172 0.0 0.0 0.00 0.00 0.00 83 1014.2
20260906014920 26 172 0.0 0.0 0.00 0.00 0.00 82 1014.4
20260906014420 26 172 0.0 0.0 0.00 0.00 0.00 82 1014.4
20260906013916 26 172 0.0 0.0 0.00 0.00 0.00 81 1014.4
20260906013412 26 172 0.0 0.0 0.00 0.00 0.00 82 1014.3
20260906012907 26 172 0.0 0.0 0.00 0.00 0.00 82 1014.3
20260906012402 26 172 0.0 0.0 0.00 0.00 0.00 81 1014.2
20260906011901 27 172 0.0 0.0 0.00 0.00 0.00 81 1014.2
20260906011356 27 172 0.0 0.0 0.00 0.00 0.00 81 1014.0
20260906010852 27 172 0.0 0.0 0.00 0.00 0.00 80 1014.1
20260906010348 27 172 0.0 0.0 0.00 0.00 0.00 79 1014.2
20260906005844 28 172 0.0 0.0 0.00 0.00 0.00 77 1014.1
20260906005343 28 172 0.0 0.0 0.00 0.00 0.00 76 1014.3
20260906004842 28 172 0.0 0.0 0.00 0.00 0.00 76 1014.4
20260906004341 28 173 0.0 0.0 0.00 0.00 0.00 77 1014.4
20260906003837 28 182 0.0 0.0 0.00 0.00 0.00 77 1014.5
20260906003332 28 127 1.6 1.6 0.00 0.00 0.00 77 1014.4
20260906002827 28 194 0.0 0.0 0.00 0.00 0.00 78 1014.2
20260906002327 28 194 0.0 0.0 0.00 0.00 0.00 77 1014.1
20260906001823 28 194 0.0 0.0 0.00 0.00 0.00 76 1014.3
20260906001318 29 194 0.0 0.0 0.00 0.00 0.00 75 1014.0
20260906000813 29 194 0.0 0.0 0.00 0.00 0.00 74 1014.5
20260906000307 30 194 0.0 0.0 0.00 0.00 0.00 73 1014.5
20260905235802 30 194 0.0 0.0 0.00 0.00 0.00 72 1014.4
20260905235306 30 194 0.0 0.0 0.00 0.00 0.00 71 1014.6
20260905234758 30 193 0.0 0.0 0.00 0.00 0.00 69 1014.4
20260905234252 30 193 0.0 0.0 0.00 0.00 0.00 68 1014.5
20260905233748 31 193 0.0 0.0 0.00 0.00 0.00 68 1014.5
20260905233247 31 193 0.0 0.0 0.00 0.00 0.00 66 1014.3
20260905232747 31 193 0.0 0.0 0.00 0.00 0.00 67 1014.3
20260905232243 31 193 0.0 0.0 0.00 0.00 0.00 66 1014.1
20260905231739 31 193 0.0 0.0 0.00 0.00 0.00 64 1014.0
20260905231234 31 193 0.0 0.0 0.00 0.00 0.00 66 1014.3
20260905230730 32 193 0.0 0.0 0.00 0.00 0.00 65 1014.3
20260905230228 32 193 0.0 0.0 0.00 0.00 0.00 63 1014.3
20260905225727 32 193 0.0 0.0 0.00 0.00 0.00 61 1014.2
20260905225223 32 193 0.0 0.0 0.00 0.00 0.00 59 1014.2
20260905224722 32 193 0.0 0.0 0.00 0.00 0.00 60 1014.2
20260905224217 32 194 0.0 0.0 0.00 0.00 0.00 59 1014.0
20260905223713 32 183 0.0 0.0 0.00 0.00 0.00 62 1014.1
20260905223210 32 183 0.0 0.0 0.00 0.00 0.00 64 1014.1
20260905222705 32 183 0.0 0.0 0.00 0.00 0.00 63 1014.2
20260905222205 32 183 0.0 0.0 0.00 0.00 0.00 64 1014.2
20260905221700 32 183 0.0 0.0 0.00 0.00 0.00 62 1014.2
20260905221157 32 183 0.0 0.0 0.00 0.00 0.00 60 1014.2
20260905220652 32 183 0.0 0.0 0.00 0.00 0.00 60 1014.2
20260905220149 33 183 1.6 1.6 0.00 0.00 0.00 58 1014.3
20260905215648 34 206 0.0 0.0 0.00 0.00 0.00 55 1014.2
20260905215144 33 144 1.6 1.6 0.00 0.00 0.00 53 1014.1
20260905214640 33 147 0.0 0.0 0.00 0.00 0.00 59 1014.2
20260905214141 32 148 1.6 1.6 0.00 0.00 0.00 60 1014.3
20260905213636 33 148 1.6 1.6 0.00 0.00 0.00 57 1014.1
20260905213131 33 147 0.0 0.0 0.00 0.00 0.00 57 1014.2
20260905212626 33 146 1.6 0.0 0.00 0.00 0.00 56 1014.5
20260905212126 33 185 1.6 1.6 0.00 0.00 0.00 55 1014.3
20260905211621 33 183 0.0 0.0 0.00 0.00 0.00 54 1014.3
20260905211116 33 170 1.6 1.6 0.00 0.00 0.00 53 1014.3
20260905210613 33 154 0.0 0.0 0.00 0.00 0.00 53 1014.5
20260905210107 34 166 0.0 0.0 0.00 0.00 0.00 52 1014.3
20260905205606 35 163 1.6 1.6 0.00 0.00 0.00 52 1014.5
20260905205106 35 211 3.2 3.2 0.00 0.00 0.00 51 1014.6
20260905204601 35 195 3.2 3.2 0.00 0.00 0.00 49 1014.6
20260905204056 36 35 4.8 4.8 0.00 0.00 0.00 47 1014.6
20260905203555 35 154 0.0 1.6 0.00 0.00 0.00 49 1014.7
20260905203051 35 194 1.6 3.2 0.00 0.00 0.00 49 1014.6
20260905202546 36 188 0.0 0.0 0.00 0.00 0.00 48 1014.5
20260905202042 35 207 1.6 1.6 0.00 0.00 0.00 49 1014.7
20260905201537 35 202 0.0 0.0 0.00 0.00 0.00 51 1014.5
20260905201037 35 168 0.0 0.0 0.00 0.00 0.00 48 1014.7
20260905200532 36 217 1.6 1.6 0.00 0.00 0.00 49 1014.6
20260905200032 35 146 1.6 1.6 0.00 0.00 0.00 50 1014.8
20260905195526 35 27 1.6 1.6 0.00 0.00 0.00 50 1014.7
20260905195021 35 42 3.2 3.2 0.00 0.00 0.00 51 1014.9
20260905194515 35 153 1.6 1.6 0.00 0.00 0.00 50 1015.1
20260905194016 35 30 3.2 3.2 0.00 0.00 0.00 49 1015.2
20260905193515 36 195 3.2 3.2 0.00 0.00 0.00 50 1015.3
20260905193011 36 250 3.2 3.2 0.00 0.00 0.00 50 1015.5
20260905192506 36 223 3.2 3.2 0.00 0.00 0.00 49 1015.5
20260905192002 36 234 3.2 3.2 0.00 0.00 0.00 48 1015.8
20260905191501 36 197 4.8 6.4 0.00 0.00 0.00 46 1015.9
20260905191000 36 192 1.6 1.6 0.00 0.00 0.00 48 1015.8
20260905190458 36 61 3.2 3.2 0.00 0.00 0.00 48 1015.7
20260905185957 36 241 1.6 3.2 0.00 0.00 0.00 48 1016.0
20260905185452 36 310 3.2 3.2 0.00 0.00 0.00 51 1015.8
20260905184951 36 182 1.6 1.6 0.00 0.00 0.00 50 1015.8
20260905184446 35 196 3.2 3.2 0.00 0.00 0.00 51 1015.7
20260905183945 35 18 3.2 3.2 0.00 0.00 0.00 50 1015.6
20260905183445 36 55 4.8 4.8 0.00 0.00 0.00 50 1015.9
20260905182940 35 108 1.6 3.2 0.00 0.00 0.00 51 1015.7
20260905182439 35 198 1.6 1.6 0.00 0.00 0.00 54 1015.8
20260905181935 35 40 3.2 3.2 0.00 0.00 0.00 53 1016.2
20260905181435 35 207 0.0 0.0 0.00 0.00 0.00 51 1016.3
20260905180934 35 234 1.6 3.2 0.00 0.00 0.00 53 1016.5
20260905180429 34 206 1.6 1.6 0.00 0.00 0.00 55 1016.4
20260905175924 34 208 4.8 4.8 0.00 0.00 0.00 53 1016.6
20260905175423 33 197 1.6 1.6 0.00 0.00 0.00 58 1016.4
20260905174918 34 126 4.8 4.8 0.00 0.00 0.00 55 1016.5
20260905174414 35 49 3.2 3.2 0.00 0.00 0.00 55 1016.6
20260905173910 34 278 3.2 3.2 0.00 0.00 0.00 55 1016.6
20260905173406 35 277 3.2 3.2 0.00 0.00 0.00 54 1016.7
20260905172901 35 201 1.6 1.6 0.00 0.00 0.00 57 1016.7
20260905172359 34 149 4.8 4.8 0.00 0.00 0.00 55 1016.8
20260905171854 34 114 1.6 1.6 0.00 0.00 0.00 57 1017.0
20260905171351 34 203 3.2 3.2 0.00 0.00 0.00 58 1016.8
20260905170848 34 193 1.6 1.6 0.00 0.00 0.00 57 1017.2
20260905170344 34 187 1.6 1.6 0.00 0.00 0.00 58 1017.0
20260905165843 34 183 1.6 1.6 0.00 0.00 0.00 55 1017.1
20260905165338 33 171 1.6 3.2 0.00 0.00 0.00 60 1017.0
20260905164838 33 209 3.2 4.8 0.00 0.00 0.00 56 1017.0
20260905164333 33 132 1.6 1.6 0.00 0.00 0.00 56 1017.1
20260905163828 34 108 3.2 3.2 0.00 0.00 0.00 56 1017.0
20260905163325 34 168 1.6 1.6 0.00 0.00 0.00 56 1017.3
20260905162821 34 161 3.2 3.2 0.00 0.00 0.00 55 1017.1
20260905162321 33 214 1.6 1.6 0.00 0.00 0.00 58 1017.2
20260905161821 33 55 1.6 1.6 0.00 0.00 0.00 59 1017.5
20260905161320 33 193 1.6 1.6 0.00 0.00 0.00 58 1017.3
20260905160818 33 62 1.6 1.6 0.00 0.00 0.00 57 1017.4
20260905160313 33 53 1.6 1.6 0.00 0.00 0.00 57 1017.4
20260905155808 33 303 3.2 3.2 0.00 0.00 0.00 55 1017.4
20260905155306 33 3 3.2 3.2 0.00 0.00 0.00 55 1017.2
20260905154801 33 219 1.6 3.2 0.00 0.00 0.00 58 1017.2
20260905154257 33 203 1.6 1.6 0.00 0.00 0.00 56 1017.1
20260905153752 33 221 1.6 1.6 0.00 0.00 0.00 57 1017.4
20260905153248 32 301 4.8 4.8 0.00 0.00 0.00 58 1017.2
20260905152743 33 189 4.8 4.8 0.00 0.00 0.00 57 1017.3
20260905152242 33 194 1.6 1.6 0.00 0.00 0.00 60 1017.5
20260905151741 32 70 1.6 1.6 0.00 0.00 0.00 60 1017.4
20260905151238 32 99 1.6 1.6 0.00 0.00 0.00 61 1017.4
20260905150737 32 128 1.6 1.6 0.00 0.00 0.00 62 1017.3
20260905150237 32 128 1.6 1.6 0.00 0.00 0.00 61 1017.4
20260905145735 33 212 1.6 1.6 0.00 0.00 0.00 57 1017.6
20260905145230 33 132 1.6 1.6 0.00 0.00 0.00 58 1017.4
20260905144729 32 188 1.6 1.6 0.00 0.00 0.00 63 1017.5
20260905144224 31 197 0.0 0.0 0.00 0.00 0.00 66 1017.5
20260905143723 30 196 3.2 3.2 0.00 0.00 0.00 67 1017.5
20260905143223 30 192 3.2 3.2 0.00 0.00 0.00 68 1017.4
20260905142721 30 183 1.6 1.6 0.00 0.00 0.00 72 1017.5
20260905142216 30 179 1.6 1.6 0.00 0.00 0.00 69 1017.5
20260905141712 30 182 1.6 1.6 0.00 0.00 0.00 70 1017.5
20260905141208 29 140 1.6 0.0 0.00 0.00 0.00 73 1017.5
20260905140703 28 179 1.6 1.6 0.00 0.00 0.00 73 1017.6
20260905140203 27 179 0.0 0.0 0.00 0.00 0.00 76 1017.4
20260905135657 27 177 3.2 3.2 0.00 0.00 0.00 79 1017.4
20260905135154 26 192 1.6 1.6 0.00 0.00 0.00 82 1017.5
20260905134653 25 212 0.0 0.0 0.00 0.00 0.00 86 1017.5
20260905134152 25 212 1.6 1.6 0.00 0.00 0.00 86 1017.4
20260905133648 25 212 0.0 0.0 0.00 0.00 0.00 86 1017.7
20260905133148 25 213 3.2 3.2 0.00 0.00 0.00 85 1017.8
20260905132647 25 171 0.0 0.0 0.00 0.00 0.00 88 1017.8
20260905132143 25 172 0.0 0.0 0.00 0.00 0.00 89 1018.0
20260905131638 24 172 0.0 0.0 0.00 0.00 0.00 90 1018.0
20260905131138 23 172 0.0 0.0 0.00 0.00 0.00 91 1017.8
20260905130633 23 132 0.0 0.0 0.00 0.00 0.00 92 1018.1
20260905130133 23 107 1.6 1.6 0.00 0.00 0.00 91 1018.1
20260905125632 23 140 0.0 0.0 0.00 0.00 0.00 92 1017.9
20260905125128 23 140 0.0 0.0 0.00 0.00 0.00 93 1018.0
20260905124624 23 149 0.0 0.0 0.00 0.00 0.00 94 1018.0
20260905124120 22 149 1.6 1.6 0.00 0.00 0.00 94 1018.0
20260905123615 22 149 0.0 0.0 0.00 0.00 0.00 94 1017.9
20260905123113 22 150 1.6 1.6 0.00 0.00 0.00 95 1017.8
20260905122612 22 151 0.0 0.0 0.00 0.00 0.00 95 1017.8
20260905122112 22 150 0.0 0.0 0.00 0.00 0.00 95 1017.7
20260905121607 22 150 0.0 1.6 0.00 0.00 0.00 96 1017.8
20260905121102 22 151 0.0 0.0 0.00 0.00 0.00 96 1017.7
20260905120601 22 153 0.0 0.0 0.00 0.00 0.00 96 1017.6
20260905120057 22 153 0.0 0.0 0.00 0.00 0.00 96 1017.6
20260905115555 22 153 0.0 0.0 0.00 0.00 0.00 96 1017.4
20260905115050 22 153 0.0 0.0 0.00 0.00 0.00 97 1017.5
20260905114549 22 153 0.0 0.0 0.00 0.00 0.00 97 1017.4
20260905114049 22 152 0.0 0.0 0.00 0.00 0.00 97 1017.2
20260905113544 22 152 0.0 0.0 0.00 0.00 0.00 97 1017.3
20260905113039 22 152 0.0 0.0 0.00 0.00 0.00 97 1017.1
20260905112535 22 152 0.0 0.0 0.00 0.00 0.00 97 1017.1
20260905112030 21 152 0.0 0.0 0.00 0.00 0.00 97 1017.0
20260905111524 21 152 0.0 0.0 0.00 0.00 0.00 97 1017.2
20260905111024 21 152 0.0 0.0 0.00 0.00 0.00 97 1016.9
20260905110523 21 152 0.0 0.0 0.00 0.00 0.00 97 1016.8
20260905110019 21 152 0.0 0.0 0.00 0.00 0.00 97 1016.9
20260905105513 21 152 0.0 0.0 0.00 0.00 0.00 97 1016.9
20260905105012 21 152 0.0 0.0 0.00 0.00 0.00 97 1016.8
20260905104508 21 152 0.0 0.0 0.00 0.00 0.00 97 1016.7
20260905104008 21 152 0.0 0.0 0.00 0.00 0.00 97 1016.8
20260905103503 21 152 0.0 0.0 0.00 0.00 0.00 97 1016.6
20260905102959 21 152 0.0 0.0 0.00 0.00 0.00 97 1016.6
20260905102455 21 155 0.0 0.0 0.00 0.00 0.00 97 1016.6
20260905101950 21 155 0.0 0.0 0.00 0.00 0.00 96 1016.4
20260905101449 21 155 0.0 0.0 0.00 0.00 0.00 96 1016.5
20260905100948 21 155 0.0 0.0 0.00 0.00 0.00 96 1016.3
20260905100444 21 155 0.0 0.0 0.00 0.00 0.00 96 1016.4
20260905095943 21 155 0.0 0.0 0.00 0.00 0.00 96 1016.7
20260905095443 22 155 0.0 0.0 0.00 0.00 0.00 96 1016.6
20260905094939 22 155 0.0 0.0 0.00 0.00 0.00 96 1016.5
20260905094434 22 155 0.0 0.0 0.00 0.00 0.00 96 1016.4
20260905093933 22 155 0.0 0.0 0.00 0.00 0.00 96 1016.6
20260905093428 21 155 0.0 0.0 0.00 0.00 0.00 96 1016.5
20260905092924 22 155 0.0 0.0 0.00 0.00 0.00 96 1016.5
20260905092419 22 155 0.0 0.0 0.00 0.00 0.00 96 1016.4
20260905091915 22 155 0.0 0.0 0.00 0.00 0.00 96 1016.4
20260905091414 22 155 0.0 0.0 0.00 0.00 0.00 95 1016.4
20260905090914 22 155 0.0 0.0 0.00 0.00 0.00 95 1016.5
20260905090409 22 155 0.0 0.0 0.00 0.00 0.00 95 1016.3
20260905085908 22 144 0.0 0.0 0.00 0.00 0.00 95 1016.2
20260905085408 22 144 0.0 0.0 0.00 0.00 0.00 95 1016.5
20260905084904 22 144 0.0 0.0 0.00 0.00 0.00 95 1016.3
20260905084403 22 144 0.0 0.0 0.00 0.00 0.00 95 1016.2
20260905083858 22 144 0.0 0.0 0.00 0.00 0.00 95 1016.3
20260905083354 22 144 0.0 0.0 0.00 0.00 0.00 95 1016.3
20260905082849 22 144 0.0 0.0 0.00 0.00 0.00 94 1016.0
20260905082345 22 144 0.0 0.0 0.00 0.00 0.00 94 1016.3
20260905081840 22 144 0.0 0.0 0.00 0.00 0.00 95 1016.2
20260905081335 22 144 0.0 0.0 0.00 0.00 0.00 94 1016.3
20260905080834 22 144 0.0 0.0 0.00 0.00 0.00 94 1016.5
20260905080329 22 144 0.0 0.0 0.00 0.00 0.00 94 1016.4
20260905075828 22 144 0.0 0.0 0.00 0.00 0.00 93 1016.3
20260905075328 22 144 0.0 0.0 0.00 0.00 0.00 93 1016.5
20260905074827 22 144 0.0 0.0 0.00 0.00 0.00 93 1016.5
20260905074323 22 144 0.0 0.0 0.00 0.00 0.00 93 1016.6
20260905073818 22 144 0.0 0.0 0.00 0.00 0.00 93 1016.5
20260905073314 22 142 0.0 0.0 0.00 0.00 0.00 93 1016.5
20260905072814 22 142 0.0 0.0 0.00 0.00 0.00 92 1016.7
20260905072309 22 142 0.0 0.0 0.00 0.00 0.00 92 1016.8
20260905071805 23 142 0.0 0.0 0.00 0.00 0.00 92 1016.9
20260905071301 23 142 0.0 0.0 0.00 0.00 0.00 92 1016.9
20260905070755 23 142 0.0 0.0 0.00 0.00 0.00 92 1016.8
20260905070253 23 142 0.0 0.0 0.00 0.00 0.00 91 1016.9
20260905065751 23 145 1.6 1.6 0.00 0.00 0.00 92 1016.9
20260905065250 23 145 0.0 0.0 0.00 0.00 0.00 93 1017.0
20260905064746 23 145 0.0 0.0 0.00 0.00 0.00 92 1016.9
20260905064241 23 144 0.0 0.0 0.00 0.00 0.00 92 1017.1
20260905063739 23 196 0.0 0.0 0.00 0.00 0.00 92 1017.1
20260905063236 23 196 0.0 0.0 0.00 0.00 0.00 92 1017.1
20260905062731 23 196 0.0 0.0 0.00 0.00 0.00 91 1017.1
20260905062231 23 197 0.0 0.0 0.00 0.00 0.00 91 1017.2
20260905061731 23 197 0.0 0.0 0.00 0.00 0.00 90 1017.3
20260905061227 23 199 0.0 0.0 0.00 0.00 0.00 91 1017.2
20260905060726 23 206 0.0 0.0 0.00 0.00 0.00 92 1017.4
20260905060223 23 188 0.0 0.0 0.00 0.00 0.00 92 1017.1
20260905055721 23 188 0.0 0.0 0.00 0.00 0.00 93 1017.1
20260905055217 23 188 0.0 0.0 0.00 0.00 0.00 93 1017.3
20260905054712 23 188 0.0 0.0 0.00 0.00 0.00 92 1017.5
20260905054209 23 188 1.6 1.6 0.00 0.00 0.00 92 1017.5
20260905053707 23 188 0.0 0.0 0.00 0.00 0.00 92 1017.5
20260905053203 23 188 0.0 0.0 0.00 0.00 0.00 92 1017.4
20260905052702 23 188 0.0 0.0 0.00 0.00 0.00 91 1017.3
20260905052157 23 188 0.0 0.0 0.00 0.00 0.00 91 1017.3
20260905051652 24 188 0.0 0.0 0.00 0.00 0.00 91 1017.3
20260905051149 24 188 0.0 0.0 0.00 0.00 0.00 91 1017.2
20260905050645 24 188 0.0 0.0 0.00 0.00 0.00 90 1017.4
20260905050141 24 188 0.0 0.0 0.00 0.00 0.00 90 1017.4
20260905045641 24 188 0.0 0.0 0.00 0.00 0.00 89 1017.2
20260905045137 24 188 0.0 0.0 0.00 0.00 0.00 89 1017.4
20260905044636 24 188 0.0 0.0 0.00 0.00 0.00 89 1017.5
20260905044131 25 188 0.0 0.0 0.00 0.00 0.00 88 1017.3
20260905043630 25 188 0.0 0.0 0.00 0.00 0.00 88 1017.4
20260905043125 25 188 0.0 0.0 0.00 0.00 0.00 87 1017.4
20260905042624 25 188 0.0 0.0 0.00 0.00 0.00 87 1017.2
20260905042119 25 188 0.0 0.0 0.00 0.00 0.00 87 1017.3
20260905041615 25 188 0.0 0.0 0.00 0.00 0.00 88 1017.1
20260905041110 25 188 0.0 0.0 0.00 0.00 0.00 88 1017.3
20260905040610 25 188 0.0 0.0 0.00 0.00 0.00 88 1017.4
20260905040109 25 188 0.0 0.0 0.00 0.00 0.00 88 1017.5
20260905035604 25 188 0.0 0.0 0.00 0.00 0.00 87 1017.2
20260905035101 25 188 0.0 0.0 0.00 0.00 0.00 87 1017.3
20260905034557 25 188 0.0 0.0 0.00 0.00 0.00 86 1017.3
20260905034056 25 188 0.0 0.0 0.00 0.00 0.00 85 1017.3
20260905033550 25 188 0.0 0.0 0.00 0.00 0.00 85 1017.5
20260905033047 25 188 0.0 0.0 0.00 0.00 0.00 85 1017.2
20260905032546 25 188 0.0 0.0 0.00 0.00 0.00 85 1017.4
20260905032047 25 188 0.0 0.0 0.00 0.00 0.00 85 1017.2
20260905031543 25 188 0.0 0.0 0.00 0.00 0.00 84 1017.2
20260905031042 26 188 1.6 1.6 0.00 0.00 0.00 83 1017.2
20260905030537 26 188 0.0 0.0 0.00 0.00 0.00 82 1017.1